Regional Weather Roundup
Issued by NWS Goodland, KS

Home | Current Version | Previous Version | Text Only | Print | Product List | Glossary Off
Versions: 1 2 3 4 5 6 7 8 9 10 11 12 13 14 15 16 17 18 19 20 21 22 23 24 25 26 27 28 29 30 31 32 33 34 35 36 37 38 39 40 41 42 43 44 45 46 47 48 49 50

000
ASUS43 KGLD 240559
RWRGLD

GOODLAND FORECAST AREA HOURLY WEATHER ROUNDUP
NATIONAL WEATHER SERVICE GOODLAND KS
1200 AM MDT MON APR 24 2017

...OFFICIAL OBSERVATIONS...

CITY           SKY/WX    TMP DP  RH WIND       PRES   REMARKS
GOODLAND KS    CLOUDY    54  37  52 S24G31    29.65F
HILL CITY KS   CLOUDY    55  37  50 S13G22    29.77F
IMPERIAL NEB   CLOUDY    54  37  52 SE18      29.63F
MCCOOK NEB     CLOUDY    55  34  45 S12G18    29.70F
AKRON CO       CLOUDY    53  39  59 S13       29.61F
BURLINGTON CO  NOT AVBL
LIMON CO       CLOUDY    43  39  86 CALM      29.69F
$$

...UNOFFICIAL OBSERVATIONS...

CITY           SKY/WX    TMP DP  RH WIND       PRES   REMARKS
LENORA KS        N/A     54  32  43 MISG        N/A
NORTON KS      CLEAR     54  32  43 SE13G22   29.75F
SHARON SPRINGS   N/A     54  39  56 S20G35      N/A
TRENTON NEB      N/A     54  32  43 S14         N/A
KIT CARSON CO    N/A     54  39  57 MISG        N/A
YUMA CO        FAIR      50  39  66 S12       29.60F
$$




USA.gov is the U.S. government's official web portal to all federal, state and local government web resources and services.